Location: *
(45.6853°N, 4.5281°E)
Time: 21:19:16
(UTC+00:00)

Daily predictions for brighter satellites

Satellite Brightness Start Highest point End
(mag) Time Altitude Azimuth Time Altitude Azimuth Time Altitude Azimuth
Cosmos 1242 Rocket 2.6 17:06:37 10° N 17:10:19 86° E 17:13:58 10° S
Cosmos 2084 Rocket 4.2 17:07:09 10° NNW 17:11:16 36° NE 17:15:20 10° ESE
USA 215 4.5 17:05:27 10° SSE 17:11:40 46° SW 17:17:56 10° WNW
Falcon 9 debris 3.1 17:13:17 10° NW 17:16:44 72° NNE 17:20:11 10° ESE
SJ 16-02 3.3 17:15:51 10° NNE 17:17:18 11° NE 17:18:44 10° ENE
Cosmos 1271 Rocket 4.4 17:13:43 10° NNW 17:17:30 42° W 17:21:17 10° SSW
SMAP 3.4 17:13:32 10° S 17:18:10 73° WSW 17:22:50 10° NNW
CORIOLIS 4.2 17:13:54 10° SSE 17:19:15 87° WSW 17:24:40 10° NNW
Cosmos 2058 Rocket 3.0 17:15:23 10° S 17:19:43 85° E 17:24:07 10° N
Cosmos 1300 4.1 17:18:42 10° SE 17:21:20 18° E 17:23:58 10° NE
Abrixas rocket 2.2 17:18:34 10° W 17:21:37 64° NNW 17:24:36 11° ENE
Unknown 3.2 17:20:17 10° NW 17:23:46 64° NNE 17:27:16 10° ESE
NOAA 12 4.1 17:19:43 10° SSE 17:24:59 77° ENE 17:30:19 10° N
Envisat 3.0 17:20:16 10° SSE 17:25:15 60° ENE 17:30:16 10° N
COBE Rocket 4.1 17:20:38 10° NNE 17:25:42 58° E 17:30:38 10° S
Cosmos 1328 4.0 17:25:48 10° NNW 17:29:46 76° W 17:33:41 10° S
Cosmos 1356 4.0 17:27:42 10° SSW 17:31:05 61° WNW 17:34:31 10° N
H-2A R/B 3.5 17:28:18 10° S 17:32:09 58° W 17:36:03 10° NNW
COSMO-SKYMED 1 2.8 17:28:28 10° NNE 17:32:41 46° E 17:36:51 10° S
Cosmos 1898 Rocket 4.5 17:30:15 10° N 17:34:44 27° ENE 17:39:13 10° ESE
Cosmos 2082 Rocket 2.3 17:30:19 10° NNW 17:36:00 60° ENE 17:41:35 10° SE
CZ-2D R/B 4.5 17:33:35 10° ESE 17:36:35 22° ENE 17:39:38 10° NNE
USA 238 DEB 3.7 17:30:37 10° SSW 17:37:13 67° ESE 17:44:04 10° NE
USA 238 3.7 17:30:44 10° SSW 17:37:20 66° ESE 17:44:10 10° NE
Cosmos 2058 3.9 17:36:48 10° NNE 17:40:21 26° ENE 17:43:53 10° SE
H-2A R/B 4.0 17:40:42 11° ENE 17:41:20 11° NE 17:42:53 10° NE
Unknown 3.8 17:40:19 10° NW 17:43:55 44° NNE 17:46:21 18° E
Cosmos 1339 Rocket 4.4 17:38:47 10° S 17:44:51 77° E 17:51:03 10° N
Unknown 3.2 17:41:20 10° WNW 17:44:52 83° SSW 17:47:59 13° SE
Cosmos 1076 Rocket 3.9 17:42:41 10° N 17:46:50 41° ENE 17:50:55 10° SSE
Okean-O 3.6 17:46:18 10° S 17:50:37 51° W 17:54:58 10° NNW
Cosmos 1939 Rocket 3.7 17:47:15 10° SE 17:50:43 29° ENE 17:54:16 10° N
Cosmos 1726 3.6 17:47:30 10° SSW 17:50:56 39° WNW 17:54:23 10° N
ATLAS 5 CENTAUR R/B 4.2 17:53:54 10° NW 17:56:31 15° NNW 17:59:19 10° NNE
SKYMED 3 4.5 17:52:19 10° NNE 17:56:42 83° ESE 18:01:02 10° SSW
NOSS 3-2 (A) 3.3 17:53:21 10° SSW 17:59:04 76° SE 18:05:35 10° NE
Cosmos 1605 Rocket 4.2 17:54:44 10° NNW 18:00:54 75° W 18:06:57 10° S
Cosmos 2151 4.1 17:58:57 10° NNE 18:02:26 23° ENE 18:02:29 23° ENE
Okean 3 Rocket 4.4 17:59:58 10° N 18:04:00 30° ENE 18:05:52 22° ESE
Ariane Rocket 3.3 18:03:12 10° SE 18:07:59 43° ENE 18:12:48 10° N
Cosmos 1812 Rocket 3.5 18:04:08 10° S 18:08:34 82° E 18:13:04 10° N
Meteor 2-1 Rocket 4.4 18:04:58 10° SSE 18:10:13 47° E 18:15:33 10° NNE
Cosmos 468 Rocket 4.4 18:05:24 10° S 18:10:18 41° ESE 18:15:13 10° NE
ADEOS Rocket 4.3 18:07:10 10° NE 18:12:54 23° E 18:13:06 23° E
Cosmos 1727 Rocket 3.9 18:08:54 10° S 18:15:04 89° E 18:21:17 10° N
ASTEX 1 4.4 18:11:17 10° N 18:16:04 49° WNW 18:20:51 10° SSW
Cosmos 2278 Rocket 3.2 18:10:48 10° SW 18:16:16 48° WNW 18:21:47 10° NNE
YAOGAN 6 3.3 18:12:44 10° S 18:16:18 55° W 18:19:52 10° NNW
Cosmos 2173 Rocket 4.0 18:10:53 10° N 18:17:03 58° ENE 18:23:05 10° SSE
YAOGAN 1 2.7 18:15:07 10° S 18:19:25 74° WSW 18:23:47 10° NNW
Cosmos 990 Rocket 4.0 18:15:28 10° NNW 18:20:37 56° ENE 18:23:48 23° SE
SKYMED 2 4.3 18:16:30 10° N 18:20:46 55° WNW 18:25:00 10° SSW
Lacrosse 5 2.7 18:16:06 10° WNW 18:20:59 49° SW 18:25:45 10° SSE
CSL-04 Rocket 3.9 18:15:53 10° S 18:21:24 76° WSW 18:26:53 10° NNW
Cosmos 2297 3.6 18:16:45 10° SSW 18:22:23 69° ESE 18:28:07 10° NNE
Cosmos 1937 Rocket 3.7 18:18:30 10° N 18:23:27 46° ENE 18:25:12 33° ESE
CZ-4 R/B 2.5 18:21:35 10° S 18:25:38 47° W 18:29:45 10° NNW
NOSS 3-2 (C) 3.3 18:20:27 10° SSW 18:26:12 77° SE 18:31:43 15° NE
BREEZE-M DEB (TANK) 3.0 18:16:28 10° WSW 18:26:55 76° SSE 18:28:17 40° E
ARGOS 4.4 18:27:50 23° NE 18:27:50 23° NE 18:31:17 10° N
Unknown 3.5 18:23:37 10° NW 18:27:25 58° NNE 18:27:57 52° ENE
Unknown 4.5 18:26:17 10° NW 18:30:08 35° NNE 18:30:47 33° NE
Cosmos 2123 Rocket 4.3 18:25:39 10° SSE 18:31:25 40° E 18:37:10 10° NNE
Cosmos 1802 Rocket 4.0 18:25:13 10° N 18:31:37 63° ENE 18:37:55 10° SSE
Starlink (trailer) 4.4 18:27:57 10° NW 18:31:48 36° NNE 18:32:23 34° NE
Cosmos 1570 Rocket 4.2 18:27:51 10° S 18:32:55 46° ESE 18:34:59 31° NE
Unknown 4.4 18:29:38 10° NW 18:33:30 36° NNE 18:34:00 35° NNE
Unknown 4.4 18:31:21 10° NW 18:35:13 37° NNE 18:35:38 36° NNE
USA 116 4.2 18:32:42 10° N 18:35:56 51° WNW 18:39:26 10° SSW
ATLAS CENTAUR R/B 3.5 18:33:42 10° N 18:36:02 16° NNE 18:36:02 16° NNE
Cosmos 1000 Rocket 4.4 18:30:56 10° S 18:37:06 72° E 18:43:22 10° NNE
Cosmos 1892 3.8 18:35:26 10° N 18:37:37 30° NNE 18:37:37 30° NNE
Cosmos-2242 2.9 18:35:28 10° S 18:39:46 64° E 18:44:04 10° NNE
Unknown 4.4 18:36:19 10° NW 18:40:13 38° NNE 18:40:24 38° NNE
Cosmos 1725 Rocket 4.1 18:35:28 10° N 18:41:35 50° ENE 18:43:50 35° SE
Unknown 4.4 18:37:56 10° NW 18:41:50 38° NNE 18:41:57 38° NNE
Cosmos 44 3.4 18:37:52 10° SW 18:42:47 74° NW 18:45:15 28° NNE
Unknown 4.4 18:39:36 10° NW 18:43:31 39° NNE 18:43:34 39° NNE
NOAA 11 4.2 18:38:25 10° S 18:43:52 80° WSW 18:49:19 10° NNW
Cosmos 1763 Rocket 3.4 18:39:38 10° S 18:44:52 64° ESE 18:47:27 30° NE
Unknown 4.3 18:41:13 10° NW 18:45:10 40° NNE 18:45:10 40° NNE
Unknown 4.4 18:42:55 10° NW 18:46:45 40° NNE 18:46:45 40° NNE
Cosmos 2100 Rocket 4.0 18:41:40 10° N 18:47:51 79° W 18:53:59 10° S
Unknown 4.3 18:44:40 10° NW 18:48:27 41° N 18:48:27 41° N
ATLAS 3B R/B 2.5 18:41:57 10° SSW 18:48:39 75° ESE 18:52:29 27° NE
Cosmos 2208 Rocket 4.1 18:45:17 10° S 18:49:40 50° SE 18:49:40 50° SE
BREEZE-M DEB (TANK) 3.4 18:48:26 10° W 18:51:06 40° WNW 18:51:06 40° WNW
Unknown 4.4 18:47:56 10° NW 18:51:34 41° N 18:51:34 41° N
Unknown 4.4 18:48:00 10° NW 18:51:38 42° N 18:51:38 42° N
Unknown 4.4 18:49:35 10° NW 18:53:09 41° N 18:53:09 41° N
CENTAUR R/B 2.4 18:48:19 10° SSW 18:54:15 84° SE 18:58:23 26° NE
SJ 16-02 1.2 18:52:13 10° NNW 18:56:27 82° NNE 18:56:27 82° NNE
Unknown 3.9 18:52:49 10° WNW 18:56:04 58° NW 18:56:04 58° NW
Cosmos 1300 4.4 18:53:16 10° SW 18:56:44 33° WNW 19:00:15 10° N
Unknown 4.5 18:52:50 10° NW 18:56:16 40° N 18:56:16 40° N
Abrixas rocket 4.0 18:54:44 10° WNW 18:56:26 28° WNW 18:56:26 28° WNW
Unknown 4.5 18:56:15 10° NW 18:59:33 41° N 18:59:33 41° N
Cosmos 2016 Rocket 3.9 18:56:05 10° N 19:02:25 87° E 19:07:42 16° S
SPOT 3 Rocket 4.1 19:05:59 43° NNE 19:05:59 43° NNE 19:09:49 10° N
Cosmos 2369 Rocket 4.1 19:03:09 10° S 19:04:06 15° S 19:04:06 15° S
SL-08 R/B 4.3 19:05:47 10° N 19:11:55 87° E 19:13:56 45° S
Cosmos 1898 Rocket 4.4 19:11:58 10° NNW 19:17:02 47° WSW 19:19:54 24° SSW
MOS 1 4.4 19:17:41 43° S 19:19:34 73° WSW 19:25:15 10° NNW
Cosmos 2082 Rocket 4.5 19:15:17 10° NW 19:19:36 22° W 19:23:51 10° SSW
H-2A R/B 2.8 19:21:20 43° N 19:21:20 43° N 19:25:05 10° N
Cosmos 1943 Rocket 3.7 19:18:38 10° SSW 19:20:37 23° SSW 19:20:37 23° SSW
ATLAS 5 CENTAUR R/B 4.5 19:41:44 10° NNW 19:43:20 12° N 19:43:20 12° N
ADEOS Rocket 3.4 19:51:33 10° NNE 19:59:11 77° WNW 19:59:59 69° WSW
ATLAS CENTAUR R/B 4.5 20:11:53 10° NW 20:12:14 12° NW 20:12:14 12° NW
ATLAS 3B R/B 4.0 20:34:01 10° W 20:39:47 32° NW 20:39:47 32° NW
CENTAUR R/B 4.2 20:40:15 10° W 20:45:36 30° NNW 20:45:36 30° NNW
